sat.trackr.live / text

‹ back to catalog

LEGION 3

NORAD 60452 · 2024-146A

PAYLOAD ACTIVE UNKNOWN

§ Identity

Operator
Country
US
Launch date
2024-08-15
Launch site
AFETR
Launch vehicle
Mass (kg)
RCS (m²)

Purposes: earth_obs

External: N2YO · Heavens-Above · Gunter

§ Orbital elements

Epoch: 2026-09-19T23:05:25.809792Z

Period
94.98 min
Inclination
45.0008°
Eccentricity
0.0007550
Mean motion
15.16058457 rev/d
Perigee alt
512.6 km
Apogee alt
523.0 km
Semi-major
6,895.9 km
B*
1.5120e-4
RAAN
242.4036°
Arg perigee
355.2391°
Mean anomaly
4.8415°
Rev number
11,640

§ Raw data

LEGION 31 60452U 24146A   26262.96210428  .00002696  00000+0  15120-3 0  99982 60452  45.0008 242.4036 0007550 355.2391   4.8415 15.16058457116408

JSON: /api/v1/satellites/60452 · /tle

For live sub-satellite position, see the globe view (requires WebGL).

§ Visibility from observer

Set your observer location to see the next 7 days of passes ≥ 10°. The values pass through the URL so the page stays shareable.

No JS? Fill the form by hand. The geolocation button needs JavaScript.